This is the latest recevied weather packets stored in our database for station/object N4ASP-13. If no packets are shown the sender has not sent any weather packets the latest 10 day(s).
| Time | Temp. | Humidity | Pressure | Rain* | Wind** | Luminosity | Snow |
|---|---|---|---|---|---|---|---|
| 1778268121 | 18.89° C | 38% | 1015.6 hPa | 0 mm | - | 983 W/m² | - |
| 1778268060 | 18.89° C | 38% | 1015.7 hPa | 0 mm | - | 974 W/m² | - |
| 1778268000 | 18.89° C | 39% | 1015.7 hPa | 0 mm | - | 981 W/m² | - |
| 1778267938 | 18.89° C | 40% | 1015.8 hPa | 0 mm | - | 923 W/m² | - |
| 1778267876 | 18.89° C | 41% | 1015.7 hPa | 0 mm | - | 947 W/m² | - |
| 1778267813 | 18.89° C | 41% | 1015.8 hPa | 0 mm | - | 991 W/m² | - |
| 1778267749 | 18.89° C | 40% | 1015.8 hPa | 0 mm | - | 993 W/m² | - |
| 1778267691 | 18.33° C | 41% | 1015.8 hPa | 0 mm | - | 925 W/m² | - |
| 1778267630 | 18.33° C | 45% | 1015.8 hPa | 0 mm | - | 1000 W/m² | - |
| 1778267571 | 18.33° C | 42% | 1015.8 hPa | 0 mm | - | 998 W/m² | - |
| 1778267507 | 18.33° C | 41% | 1015.7 hPa | 0 mm | - | 1002 W/m² | - |
| 1778267446 | 18.33° C | 40% | 1015.7 hPa | 0 mm | - | 1004 W/m² | - |
| 1778267386 | 18.33° C | 41% | 1015.7 hPa | 0 mm | - | 1002 W/m² | - |
| 1778267326 | 18.33° C | 41% | 1015.7 hPa | 0 mm | - | 1005 W/m² | - |
| 1778267265 | 18.89° C | 39% | 1015.8 hPa | 0 mm | - | 1005 W/m² | - |
| 1778267196 | 18.89° C | 40% | 1015.8 hPa | 0 mm | - | 1005 W/m² | - |
| 1778267136 | 18.89° C | 43% | 1015.7 hPa | 0 mm | - | 1007 W/m² | - |
| 1778267077 | 18.89° C | 41% | 1015.7 hPa | 0 mm | - | 1005 W/m² | - |
| 1778267016 | 18.89° C | 40% | 1015.8 hPa | 0 mm | - | 1013 W/m² | - |
| 1778266954 | 18.89° C | 39% | 1015.8 hPa | 0 mm | - | 1011 W/m² | - |
| 1778266894 | 18.89° C | 39% | 1015.8 hPa | 0 mm | - | 1013 W/m² | - |
| 1778266834 | 18.89° C | 41% | 1015.9 hPa | 0 mm | - | 1011 W/m² | - |
| 1778266771 | 18.89° C | 41% | 1015.9 hPa | 0 mm | - | 1009 W/m² | - |
| 1778266709 | 18.89° C | 41% | 1015.8 hPa | 0 mm | - | 1011 W/m² | - |
| 1778266648 | 18.89° C | 42% | 1015.9 hPa | 0 mm | - | 1013 W/m² | - |
* Rain latest hour (hover to see other rain measurements)
** Current wind speed in m/s (hover to see current wind gust speed)